[[{"header":{"parameterUnit":"m.s-1","parameterCategory":1,"la1":30.2991,"la2":30.254,"lo1":-89.0895,"lo2":-89.0444,"dy":0.0017,"dx":0.0017,"nx":28,"ny":28,"refTime":"2025-08-16T21:00:00:Z","depth":0,"parameterNumber":2,"parameterNumberName":"U-component_of_WINDS"},"data":[0,0,0,0,0,0,0,0,0,0,0,0,0,0,0,0,0,0,0,0,0,0,0,0,0,0,0,0,0,0,0,0,0,0,0,0,0,0,0,0,0,0,0,0,0,0,0,0,0,0,0,0,0,0,0,0,0,0,0.2723,0.2721,0,0.2611,0.261,0.2608,0.239,0.2386,0.2382,0.2377,0.228,0.2282,0.2283,0,0,0,0,0,0,0,0,0,0,0,0,0,0.2762,0.2762,0.2723,0.2721,0.272,0.2611,0.261,0.2608,0.2391,0.2386,0.238,0.2376,0.228,0.2281,0.2283,0,0,0,0,0,0,0,0,0,0,0,0,0,0.2708,0.2762,0.2723,0.2598,0.2586,0.2611,0.261,0.2608,0.2392,0.2386,0.2379,0.2373,0.2279,0.2281,0.2283,0.2427,0,0,0.229,0.2291,0,0,0,0,0,0,0,0,0.2711,0.2706,0.2618,0.2607,0.2593,0.2507,0.2587,0.2548,0.2394,0.2466,0.2377,0.237,0.2362,0.2357,0.2351,0.2422,0.2418,0.229,0.2292,0.2292,0.2293,0,0,0,0,0,0,0,0.2715,0.271,0.2679,0.2617,0.2602,0.2552,0.2537,0.2579,0.2453,0.2459,0.2443,0.2432,0.2354,0.2349,0.2347,0.2417,0.229,0.2292,0.2293,0.2294,0.2601,0.2607,0,0,0,0,0,0,0.2735,0.2715,0.2682,0.2675,0.2636,0.2557,0.254,0.2542,0.2451,0.2431,0.2438,0.2422,0.2349,0.2345,0.2343,0.2506,0.2292,0.2295,0.2296,0.2594,0.2602,0.261,0,0,0,0,0,0,0.2736,0.2734,0.2687,0.269,0.268,0.2563,0.2567,0.2543,0.2538,0.2435,0.2413,0.2455,0.2344,0.234,0.2406,0.2499,0.2295,0.2297,0.2586,0.2596,0.2606,0.2833,0,0,0,0,0,0,0.2739,0.2736,0.2786,0.2693,0.2681,0.2749,0.2572,0.2546,0.254,0.2519,0.2445,0.2427,0.2338,0.2404,0.2409,0.2499,0.2299,0.2577,0.2591,0.2603,0.2817,0.285,0.2878,0,0,0,0,0,0.2741,0.2859,0.279,0.2788,0.2741,0.2755,0.2749,0.2639,0.2548,0.26,0.2534,0.243,0.2487,0.2413,0.2416,0.2508,0.2571,0.2587,0.2602,0.2803,0.2843,0.2877,0,0,0,0,0,0,0.2973,0.2844,0.2767,0.2857,0.2818,0.2718,0.278,0.2685,0.2676,0.2657,0.2526,0.2511,0.2597,0.2558,0.2478,0.2642,0.2513,0.2529,0.2665,0.2702,0.2732,0.2742,0.2301,0,0,0,0,0,0.3033,0.305,0.2939,0.303,0.3013,0.29,0.2902,0.282,0.2777,0.2761,0.2699,0.2666,0.2676,0.2686,0.269,0.2808,0.2791,0.2873,0.2904,0.2929,0.2947,0.3008,0.3044,0.266,0.266,0.266,0,0,0.3162,0.3093,0.3113,0.3074,0.3034,0.3059,0.2888,0.2922,0.2941,0.2768,0.2826,0.278,0.2733,0.2827,0.2865,0.2798,0.3048,0.2949,0.297,0.2974,0.3028,0.3064,0.3097,0.267,0.2669,0.2667,0,0,0.3408,0.3356,0.3425,0.3387,0.3325,0.3249,0.3266,0.3179,0.314,0.3194,0.3064,0.3087,0.3107,0.3079,0.3068,0.3299,0.3204,0.3304,0.3466,0.3527,0.3557,0.3583,0.3669,0.3701,0.3321,0.3321,0.3322,0,0.3577,0.3603,0.3475,0.3515,0.3503,0.334,0.3412,0.3383,0.333,0.3327,0.325,0.327,0.3228,0.3313,0.3368,0.3364,0.3382,0.3314,0.3562,0.3587,0.361,0.369,0.3722,0.3334,0.3333,0.3331,0.333,0,0.3815,0.3835,0.39,0.3844,0.3839,0.3896,0.378,0.3791,0.3709,0.3642,0.3701,0.3642,0.3632,0.3645,0.3568,0.3719,0.3679,0.3584,0.3453,0.3661,0.3735,0.3764,0.3352,0.3348,0.3344,0.3341,0,0,0.421,0.4077,0.4104,0.4076,0.3995,0.4011,0.4061,0.4044,0.4057,0.4025,0.4066,0.4085,0.3995,0.3982,0.39,0.3953,0.4142,0.3851,0.3848,0.391,0.4309,0.4384,0.4421,0.4076,0.4081,0.4086,0.4314,0,0.444,0.4512,0.4397,0.4499,0.4518,0.4361,0.4404,0.4362,0.43,0.4311,0.4244,0.426,0.4139,0.413,0.4175,0.411,0.4222,0.4091,0.412,0.4122,0.414,0.4459,0.4538,0.4757,0.4341,0.4346,0.435,0,0.472,0.4694,0.4797,0.4706,0.471,0.4751,0.4725,0.4736,0.4685,0.4636,0.462,0.4519,0.4567,0.4435,0.45,0.4414,0.4418,0.4388,0.4393,0.4396,0.4252,0.4474,0.4823,0.4858,0.4393,0.4389,0.4386,0,0.5002,0.4993,0.5051,0.5033,0.4929,0.4961,0.4921,0.4862,0.4859,0.4838,0.4835,0.4823,0.4818,0.4812,0.4712,0.4625,0.4791,0.4651,0.4757,0.476,0.4803,0.4803,0.5163,0.48,0.4799,0.4799,0.4798,0,0.5274,0.5344,0.5176,0.5214,0.5287,0.5154,0.5233,0.5176,0.5125,0.5153,0.5017,0.5047,0.4911,0.4927,0.485,0.4917,0.4915,0.4881,0.4861,0.4895,0.49,0.49,0.4884,0.4807,0.4805,0.4804,0.4802,0,0.5603,0.5492,0.5547,0.5441,0.5416,0.5476,0.5388,0.542,0.5347,0.5383,0.5384,0.5272,0.5283,0.5181,0.5176,0.5123,0.523,0.5181,0.5246,0.5232,0.5345,0.5337,0.5721,0.5765,0.5372,0.5375,0.5379,0,0.5785,0.5834,0.5731,0.5736,0.57,0.5711,0.5704,0.5575,0.5576,0.552,0.5561,0.5559,0.5552,0.5579,0.55,0.5495,0.5448,0.5582,0.5447,0.5481,0.5454,0.5454,0.546,0.5613,0.5618,0.5622,0.5625,0,0.6123,0.6064,0.6057,0.6031,0.6026,0.6001,0.5968,0.5982,0.5841,0.585,0.5856,0.585,0.584,0.5843,0.5821,0.5785,0.5685,0.5667,0.5692,0.5731,0.5767,0.5752,0.5327,0.5661,0.5657,0.5654,0.5652,0.5651,0.6385,0.6421,0.6353,0.635,0.6309,0.6281,0.6305,0.6232,0.6234,0.6212,0.6136,0.6157,0.6105,0.6065,0.6037,0.6055,0.5991,0.6026,0.6036,0.6048,0.6069,0.576,0.6051,0.6049,0.6048,0.6047,0.6046,0,0.6718,0.6664,0.6662,0.6617,0.6615,0.6511,0.6469,0.6477,0.6494,0.6451,0.6444,0.6453,0.6453,0.6373,0.6365,0.6395,0.6349,0.6398,0.6396,0.639,0.6126,0.6106,0.6435,0.6435,0.6435,0.6435,0.6435,0.6435,0.6891,0.6945,0.6879,0.6914,0.6861,0.6875,0.686,0.6834,0.6798,0.6812,0.6809,0.6753,0.6697,0.6683,0.668,0.6657,0.6662,0.6728,0.669,0.6446,0.6409,0.6373,0.6354,0.6729,0.673,0.6953,0.6955,0.6956]},{"header":{"parameterUnit":"m.s-1","parameterCategory":1,"la1":30.2991,"la2":30.254,"lo1":-89.0895,"lo2":-89.0444,"dy":0.0017,"dx":0.0017,"nx":28,"ny":28,"refTime":"2025-08-16T21:00:00:Z","depth":0,"parameterNumber":3,"parameterNumberName":"V-component_of_WINDS"},"data":[0,0,0,0,0,0,0,0,0,0,0,0,0,0,0,0,0,0,0,0,0,0,0,0,0,0,0,0,0,0,0,0,0,0,0,0,0,0,0,0,0,0,0,0,0,0,0,0,0,0,0,0,0,0,0,0,0,0,0.1657,0.1654,0,0.1375,0.1372,0.1369,0.1258,0.1258,0.1259,0.126,0.096,0.0951,0.0943,0,0,0,0,0,0,0,0,0,0,0,0,0,0.2083,0.2076,0.1657,0.1653,0.165,0.1376,0.1372,0.1368,0.1258,0.1258,0.1259,0.126,0.0963,0.0953,0.0942,0,0,0,0,0,0,0,0,0,0,0,0,0,0.1859,0.2073,0.1657,0.1562,0.1551,0.1377,0.1372,0.1367,0.1257,0.1258,0.126,0.1261,0.0966,0.0954,0.0941,0.0837,0,0,0.0901,0.0895,0,0,0,0,0,0,0,0,0.1872,0.1844,0.1579,0.1568,0.1555,0.1353,0.1412,0.1189,0.1257,0.1368,0.126,0.1261,0.1089,0.1066,0.101,0.0823,0.081,0.09,0.0892,0.0886,0.0882,0,0,0,0,0,0,0,0.1888,0.1855,0.1545,0.1576,0.1561,0.1528,0.1497,0.1369,0.1225,0.1359,0.135,0.1319,0.1082,0.1023,0.1002,0.0806,0.09,0.0888,0.088,0.0875,0.0514,0.0513,0,0,0,0,0,0,0.1921,0.1869,0.1554,0.1537,0.172,0.1519,0.1485,0.1417,0.1226,0.1199,0.1318,0.1315,0.1045,0.1018,0.0991,0.0856,0.0886,0.0874,0.0866,0.0516,0.0514,0.0512,0,0,0,0,0,0,0.1931,0.1894,0.1565,0.17,0.1656,0.1511,0.1435,0.141,0.1351,0.1196,0.1168,0.1285,0.1045,0.101,0.0876,0.0844,0.0868,0.0856,0.0518,0.0515,0.0513,0.0586,0,0,0,0,0,0,0.1943,0.1898,0.1862,0.17,0.1649,0.146,0.1433,0.1404,0.133,0.1323,0.1158,0.1131,0.1043,0.0896,0.0863,0.0827,0.0846,0.052,0.0517,0.0514,0.0586,0.0587,0.0587,0,0,0,0,0,0.1959,0.1892,0.186,0.1823,0.1601,0.1459,0.1429,0.1332,0.1329,0.1288,0.1187,0.1136,0.0853,0.0884,0.0845,0.0805,0.0522,0.0518,0.0514,0.0586,0.0587,0.0587,0,0,0,0,0,0,0.2049,0.1869,0.1832,0.1712,0.1602,0.144,0.1387,0.1336,0.1222,0.1219,0.11,0.1063,0.0939,0.0857,0.0895,0.0691,0.0683,0.0671,0.0751,0.075,0.075,0.0773,0.0835,0,0,0,0,0,0.2056,0.196,0.1805,0.1713,0.166,0.1533,0.1467,0.1402,0.1281,0.1233,0.1123,0.1004,0.0887,0.0814,0.0698,0.0572,0.0533,0.0524,0.0525,0.0526,0.0518,0.0442,0.0436,0.0499,0.0499,0.0499,0,0,0.2068,0.1957,0.1903,0.1729,0.1636,0.1534,0.1495,0.1389,0.1311,0.1216,0.1085,0.0998,0.0857,0.0727,0.0664,0.0655,0.0491,0.0521,0.0523,0.0514,0.0437,0.0431,0.0426,0.0496,0.0497,0.0497,0,0,0.2037,0.1945,0.1858,0.1765,0.1626,0.1541,0.152,0.1365,0.1305,0.1172,0.1097,0.0999,0.0802,0.0704,0.0628,0.0555,0.0503,0.052,0.0523,0.045,0.0445,0.044,0.0413,0.0404,0.0512,0.0512,0.0512,0,0.2068,0.1918,0.1818,0.1717,0.164,0.1551,0.1459,0.1372,0.1201,0.1148,0.1141,0.0889,0.0788,0.0632,0.0614,0.0556,0.0525,0.054,0.0455,0.0448,0.0442,0.0414,0.0405,0.0515,0.0514,0.0514,0.0514,0,0.1961,0.1857,0.1802,0.1643,0.1559,0.1463,0.1344,0.127,0.121,0.1124,0.0986,0.0861,0.0717,0.0674,0.0614,0.0508,0.0507,0.0479,0.0468,0.0441,0.0413,0.0402,0.0519,0.0518,0.0517,0.0516,0,0,0.1984,0.1769,0.1751,0.1676,0.1513,0.1428,0.1324,0.1187,0.1125,0.1008,0.0916,0.0749,0.0721,0.0635,0.0561,0.0497,0.0445,0.0475,0.047,0.0474,0.0317,0.0341,0.0331,0.0408,0.0406,0.0404,0.0329,0,0.1932,0.175,0.1655,0.1511,0.1411,0.1322,0.123,0.1118,0.1033,0.0931,0.0835,0.0719,0.0691,0.0638,0.0571,0.0466,0.0412,0.047,0.0318,0.0314,0.0359,0.0316,0.0341,0.0278,0.0318,0.0316,0.0314,0,0.1849,0.1737,0.1584,0.143,0.1384,0.1305,0.117,0.1075,0.0943,0.0885,0.0788,0.0715,0.0596,0.0593,0.0426,0.0467,0.0398,0.0336,0.0331,0.0314,0.0315,0.0299,0.0255,0.0246,0.0296,0.0298,0.0299,0,0.1881,0.169,0.1573,0.1511,0.133,0.1276,0.1196,0.1065,0.0988,0.0867,0.0814,0.068,0.0606,0.0501,0.0392,0.0399,0.0234,0.0222,0.018,0.0183,0.0151,0.0155,0.0097,0.0105,0.0106,0.0106,0.0106,0,0.1833,0.1743,0.1585,0.1514,0.1407,0.1295,0.1192,0.1104,0.0988,0.0894,0.0806,0.0718,0.0579,0.0472,0.0384,0.0258,0.0225,0.0172,0.015,0.0181,0.0188,0.0135,0.0137,0.0103,0.0104,0.0104,0.0105,0,0.1852,0.1743,0.161,0.1449,0.1405,0.1334,0.1193,0.1117,0.1026,0.0908,0.0873,0.0729,0.0599,0.0479,0.0304,0.0244,0.0116,0.0088,0.0163,0.0151,0.0116,0.0122,0.0023,0.0003,0.0026,0.0026,0.0026,0,0.1831,0.1759,0.1591,0.1524,0.1447,0.1339,0.126,0.1144,0.1064,0.0906,0.0848,0.0711,0.0597,0.039,0.0267,0.0131,0.0099,0.0073,0.0078,0.011,0.0098,0.0105,0.0096,0.0076,0.0076,0.0077,0.0077,0,0.1803,0.1752,0.1644,0.1516,0.1424,0.1317,0.1205,0.1154,0.1015,0.0929,0.0796,0.0707,0.0529,0.0393,0.0243,0.0154,0.0091,0.0076,0.0059,0.0091,0.0137,0.0111,0.0167,0.0079,0.0079,0.0079,0.0079,0.0079,0.18,0.1732,0.1603,0.1483,0.1388,0.1286,0.1206,0.1106,0.0995,0.0845,0.078,0.0645,0.0508,0.0301,0.0213,0.0101,0.0088,0.0064,0.0058,0.0054,0.006,0.0154,0.0073,0.0073,0.0073,0.0072,0.0072,0,0.1767,0.1679,0.1571,0.142,0.1325,0.1277,0.115,0.1073,0.0957,0.0837,0.0726,0.0571,0.0437,0.0303,0.0161,0.0097,0.0064,0.0064,0.0068,0.0048,0.008,0.0109,0.0093,0.0093,0.0093,0.0093,0.0093,0.0093,0.174,0.1622,0.1555,0.1386,0.1296,0.1167,0.1098,0.1001,0.0905,0.0738,0.0628,0.0543,0.0415,0.0262,0.0136,0.0099,0.005,0.0058,0.0013,0.0046,0.0046,0.0046,0.0072,0.0049,0.0048,-0.001,-0.001,-0.0011]}]]